Skip to main content.
Our real time weather data display below is updated continuously via our 24/7 live data feed.
 TIME   TEMPERATURE   WINDSPEED   DIRECTION   HUMIDITY   BAROMETER   RAINFALL 
10:15 18.0°C (64.4°F) 27.8 kmh (17.3 mph) ENE 88% 1015.9hPa (30.00 inHg) 0.0mm (0.00 in.)
9:15 17.0°C (62.6 °F) 24.1 kmh (15.0 mph) ENE 93% 1015.9hPa (30.00 inHg) 0.0mm (0.00 in.)
8:15 16.0°C (60.8 °F) 25.9 kmh (16.1 mph) ENE 100% 1014.9hPa (29.97 inHg) 0.0mm (0.00 in.)
7:15 16.0°C (60.8 °F) 18.5 kmh (11.5 mph) ENE 100% 1014.9hPa (29.97 inHg) 0.0mm (0.00 in.)
6:15 16.0°C (60.8 °F) 20.4 kmh (12.7 mph) ENE 100% 1013.9hPa (29.94 inHg) 0.0mm (0.00 in.)
5:15 16.0°C (60.8 °F) 20.4 kmh (12.7 mph) ENE 100% 1013.9hPa (29.94 inHg) 0.0mm (0.00 in.)
4:15 16.0°C (60.8 °F) 24.1 kmh (15.0 mph) NNE 100% 1013.9hPa (29.94 inHg) 0.0mm (0.00 in.)
3:15 16.0°C (60.8 °F) 18.5 kmh (11.5 mph) NNE 100% 1013.9hPa (29.94 inHg) 0.0mm (0.00 in.)
2:15 16.0°C (60.8 °F) 9.3 kmh (5.8 mph) NE 100% 1014.9hPa (29.97 inHg) 0.0mm (0.00 in.)
1:15 16.0°C (60.8 °F) 20.4 kmh (12.7 mph) ENE 100% 1015.9hPa (30.00 inHg) 0.0mm (0.00 in.)
12:15 16.0°C (60.8 °F) 22.2 kmh (13.8 mph) NE 100% 1014.9hPa (29.97 inHg) 0.0mm (0.00 in.)
11:15 17.0°C (62.6 °F) 18.5 kmh (11.5 mph) ENE 93% 1014.9hPa (29.97 inHg) 0.0mm (0.00 in.)
10:15 17.0°C (62.6 °F) 18.5 kmh (11.5 mph) ENE 88% 1014.9hPa (29.97 inHg) 0.0mm (0.00 in.)
9:15 16.0°C (60.8 °F) 25.9 kmh (16.1 mph) NE 100% 1013.9hPa (29.94 inHg) 0.0mm (0.00 in.)
8:15 17.0°C (62.6 °F) 33.3 kmh (20.7 mph) NE 88% 1012.9hPa (29.91 inHg) 0.0mm (0.00 in.)
7:15 17.0°C (62.6 °F) 27.8 kmh (17.3 mph) ENE 88% 1012.9hPa (29.91 inHg) 0.0mm (0.00 in.)
6:15 18.0°C (64.4 °F) 25.9 kmh (16.1 mph) ENE 82% 1013.9hPa (29.94 inHg) 0.0mm (0.00 in.)
5:15 19.0°C (66.2 °F) 20.4 kmh (12.7 mph) E 77% 1012.9hPa (29.91 inHg) 0.0mm (0.00 in.)
4:15 19.0°C (66.2 °F) 18.5 kmh (11.5 mph) E 77% 1013.9hPa (29.94 inHg) 0.0mm (0.00 in.)
3:15 19.0°C (66.2 °F) 29.6 kmh (18.4 mph) ENE 77% 1012.9hPa (29.91 inHg) 0.0mm (0.00 in.)
2:15 20.0°C (68.0 °F) 22.2 kmh (13.8 mph) ENE 72% 1013.9hPa (29.94 inHg) 0.0mm (0.00 in.)
1:15 19.0°C (66.2 °F) 27.8 kmh (17.3 mph) E 82% 1013.9hPa (29.94 inHg) 0.0mm (0.00 in.)
12:15 19.0°C (66.2 °F) 25.9 kmh (16.1 mph) ENE 82% 1013.9hPa (29.94 inHg) 0.0mm (0.00 in.)
11:15 18.0°C (64.4 °F) 24.1 kmh (15.0 mph) ENE 88% 1013.9hPa (29.94 inHg) 0.0mm (0.00 in.)